Tracking 19562 objects as of 22-Mar-2019
HD Live streaming from Space Station
objects crossing your sky now

INSAT 3C

Track INSAT 3C now!
INSAT 3C is classified as:


NORAD ID: 27298
Int'l Code: 2002-002A
Perigee: 36,046.7 km
Apogee: 36,088.4 km
Inclination: 2.0 °
Period: 1,450.1 minutes
Semi major axis: 42438 km
RCS: 10.7943 m2 (large)
Launch date: January 23, 2002
Source: India (IND)
Launch site: FRENCH GUIANA (FRGUI)

Voice, video and digital data services to India and neighboring countries.
aabbcc
Your satellite tracking list
Your tracking list is empty




NASA's NSSDC Master Catalog

Two Line Element Set (TLE):
1 27298U 02002A   19080.46553597 -.00000326  00000-0  00000+0 0  9995
2 27298   2.0338  87.8789 0004909  78.0094 312.8803  0.99303010 62786
Source of the keplerian elements: AFSPC